Regional Weather Roundup
Issued by NWS Kansas City/Pleasant Hill, MO

Home | Current Version | Previous Version | Graphics & Text | Print | Product List | Glossary Off
Versions: 1 2 3 4 5 6 7 8 9 10 11 12 13 14 15 16 17 18 19 20 21 22 23 24 25 26 27 28 29 30 31 32 33 34 35 36 37 38 39 40 41 42 43 44 45 46 47 48 49 50

116
ASUS43 KEAX 231410
RWREAX

WEATHER ROUNDUP FOR EASTERN KANSAS AND NORTHWEST MISSOURI
NATIONAL WEATHER SERVICE KANSAS CITY/PLEASANT HILL MO
900 AM CDT TUE AUG 23 2016

KSZ040-057-103>105-MOZ028-029-037-043-231500-
...KANSAS CITY METROPOLITAN AREA...

CITY           SKY/WX    TMP DP  RH WIND       PRES   REMARKS
K.C. INTL      CLOUDY    72  66  81 S13       30.05S
K.C. DOWNTOWN  CLOUDY    74  67  78 S7        30.06S
LEES SUMMIT    CLOUDY    71  66  84 S13       30.08S
OLATHE - IXD   CLOUDY    72  69  90 S13       30.06S
OLATHE - OJC   CLOUDY    70  67  90 S8        30.07S
LAWRENCE       CLOUDY    74  70  87 SE9       30.03F

$$

MOZ001>008-011>017-020>025-030>033-038>040-044>046-053-054-231500-
...NORTHERN AND CENTRAL MISSOURI...

CITY           SKY/WX    TMP DP  RH WIND       PRES   REMARKS
ST. JOSEPH     CLOUDY    72  67  84 S10       30.04S
MOSBY          CLOUDY    68  64  88 SE5       30.07S
WHITEMAN AFB   CLOUDY    71  71 100 S8        30.10R
CLINTON        CLOUDY    72  68  88 S5        30.11S
SEDALIA        CLOUDY    73  68  84 S10       30.13S
WARSAW         NOT AVBL
CHILLICOTHE      N/A     71  64  78 S9        30.10S
KIRKSVILLE     SUNNY     69  63  81 S10       30.13S

$$

MOZ041-047>049-056>058-063>065-088>090-097-231500-
...EASTERN AND SOUTHERN MISSOURI...

CITY           SKY/WX    TMP DP  RH WIND       PRES   REMARKS
ST. LOUIS INTL NOT AVBL
SPIRIT OF STL  CLOUDY    70  63  78 S5        30.19R
COLUMBIA       MOSUNNY   71  64  78 S13       30.15R
JEFFERSON CITY PTSUNNY   73  65  75 SE8       30.14S
ROLLA          CLOUDY    67  65  93 SE8       30.17S
OSAGE BEACH    CLOUDY    70  66  87 S6        30.15S
SPRINGFIELD    TSTM      71  69  93 S10       30.15S FOG
BRANSON        CLOUDY    72  70  94 SE7       30.18R
JOPLIN         CLOUDY    75  71  87 S10       30.11S

$$

IAZ060-094-KSZ022-034>040-054-083-096-NEZ052-066-093-231500-
...KANSAS...SOUTHEAST NEBRASKA AND IOWA...

CITY           SKY/WX    TMP DP  RH WIND       PRES   REMARKS
TOPEKA         CLOUDY    75  70  84 S12G20    30.01F
MANHATTAN      CLOUDY    76  71  85 S9        29.95F
EMPORIA        CLOUDY    75  71  87 S15G26    30.02S
CHANUTE        CLOUDY    76  72  87 SE10      30.07R
WICHITA        PTSUNNY   77  72  84 S21G26    29.99S
OMAHA          CLOUDY    72  65  78 S18       29.95S
LINCOLN        CLOUDY    73  69  87 S16G25    29.93R
FALLS CITY     CLOUDY    72  69  90 SE10      29.98F
LAMONI         MOSUNNY   67  65  93 S12       30.07S
DES MOINES     PTSUNNY   70  64  81 S13       30.04S

$$





USA.gov is the U.S. government's official web portal to all federal, state and local government web resources and services.